• In Belarus
  • List of Countries
  • For 7 days
  • Water Temperature
  • Weather Map
  • Weather Widgets
  • user-avatar
    Login

    Hourly Weather Emona

    Today, 17 November, Sunday

    Time Temperature Precipitation Wind Pressure Humidity
    00:00 +15°C° 0 mm 2 mps 765 mmHg 95%
    01:00 +15°C° 0 mm 2 mps 765 mmHg 95%
    02:00 +14°C° 0 mm 2 mps 765 mmHg 95%
    03:00 +15°C° 0 mm 2 mps 765 mmHg 95%
    04:00 +15°C° 0 mm 2 mps 765 mmHg 95%
    05:00 +14°C° 0 mm 3 mps 765 mmHg 95%
    06:00 +14°C° 0 mm 3 mps 765 mmHg 94%
    07:00 +14°C° 0 mm 3 mps 765 mmHg 92%
    08:00 +15°C° 0 mm 4 mps 765 mmHg 90%
    09:00 +17°C° 0 mm 4 mps 765 mmHg 86%
    10:00 +17°C° 0 mm 4 mps 765 mmHg 82%
    11:00 +18°C° 0 mm 4 mps 765 mmHg 78%
    12:00 +18°C° 0 mm 4 mps 765 mmHg 75%
    13:00 +19°C° 0 mm 4 mps 764 mmHg 73%
    14:00 +19°C° 0 mm 4 mps 764 mmHg 71%
    15:00 +18°C° 0 mm 4 mps 764 mmHg 77%
    16:00 +17°C° 0 mm 4 mps 764 mmHg 83%
    17:00 +16°C° 0 mm 3 mps 764 mmHg 90%
    18:00 +16°C° 0 mm 3 mps 764 mmHg 89%
    19:00 +16°C° 0 mm 3 mps 764 mmHg 89%
    20:00 +16°C° 0 mm 3 mps 764 mmHg 89%
    21:00 +16°C° 0 mm 3 mps 764 mmHg 89%
    22:00 +16°C° 0 mm 2 mps 764 mmHg 88%
    23:00 +16°C° 0 mm 2 mps 764 mmHg 87%

    Tomorrow, 18 November, Monday

    Time Temperature Precipitation Wind Pressure Humidity
    00:00 +16°C° 0 mm 2 mps 764 mmHg 89%
    01:00 +15°C° 0 mm 2 mps 763 mmHg 90%
    02:00 +15°C° 0 mm 2 mps 763 mmHg 91%
    03:00 +15°C° 0 mm 2 mps 763 mmHg 91%
    04:00 +14°C° 0 mm 2 mps 763 mmHg 92%
    05:00 +14°C° 0 mm 2 mps 763 mmHg 93%
    06:00 +14°C° 0 mm 2 mps 763 mmHg 92%
    07:00 +14°C° 0 mm 2 mps 763 mmHg 91%
    08:00 +15°C° 0 mm 2 mps 763 mmHg 91%
    09:00 +16°C° 0 mm 2 mps 763 mmHg 82%
    10:00 +18°C° 0 mm 2 mps 763 mmHg 73%
    11:00 +20°C° 0 mm 2 mps 763 mmHg 64%
    12:00 +20°C° 0 mm 2 mps 763 mmHg 61%
    13:00 +21°C° 0 mm 3 mps 763 mmHg 57%
    14:00 +22°C° 0 mm 3 mps 763 mmHg 53%
    15:00 +21°C° 0 mm 2 mps 763 mmHg 57%
    16:00 +20°C° 0 mm 2 mps 763 mmHg 61%
    17:00 +19°C° 0 mm 2 mps 763 mmHg 66%
    18:00 +18°C° 0 mm 2 mps 764 mmHg 67%
    19:00 +19°C° 0 mm 1 mps 764 mmHg 69%
    20:00 +19°C° 0 mm 1 mps 764 mmHg 71%
    21:00 +18°C° 0 mm 1 mps 764 mmHg 71%
    22:00 +18°C° 0 mm 1 mps 765 mmHg 71%
    23:00 +18°C° 0 mm 1 mps 765 mmHg 71%

    Day after tomorrow, 19 November, Tuesday

    Time Temperature Precipitation Wind Pressure Humidity
    00:00 +16°C° 0 mm 1 mps 765 mmHg 72%
    01:00 +16°C° 0 mm 1 mps 765 mmHg 74%
    02:00 +16°C° 0 mm 1 mps 765 mmHg 76%
    03:00 +16°C° 0 mm 1 mps 765 mmHg 78%
    04:00 +15°C° 0 mm 1 mps 766 mmHg 80%
    05:00 +15°C° 0 mm 1 mps 766 mmHg 82%
    06:00 +15°C° 0 mm 1 mps 766 mmHg 82%
    07:00 +15°C° 0 mm 1 mps 766 mmHg 83%
    08:00 +15°C° 0 mm 0 mps 766 mmHg 83%
    09:00 +18°C° 0 mm 1 mps 766 mmHg 75%
    10:00 +20°C° 0 mm 1 mps 766 mmHg 68%
    11:00 +22°C° 0 mm 1 mps 766 mmHg 60%
    12:00 +22°C° 0 mm 1 mps 766 mmHg 56%
    13:00 +23°C° 0 mm 2 mps 766 mmHg 52%
    14:00 +24°C° 0 mm 2 mps 765 mmHg 48%
    15:00 +21°C° 0 mm 2 mps 765 mmHg 53%
    16:00 +20°C° 0 mm 2 mps 765 mmHg 58%
    17:00 +18°C° 0 mm 2 mps 765 mmHg 64%
    18:00 +18°C° 0 mm 2 mps 765 mmHg 65%
    19:00 +17°C° 0 mm 2 mps 765 mmHg 66%
    20:00 +16°C° 0 mm 2 mps 765 mmHg 67%
    21:00 +16°C° 0 mm 2 mps 765 mmHg 70%
    22:00 +16°C° 0 mm 2 mps 765 mmHg 72%
    23:00 +15°C° 0 mm 2 mps 765 mmHg 75%

    20 November, Wednesday

    Time Temperature Precipitation Wind Pressure Humidity
    00:00 +15°C° 0 mm 2 mps 765 mmHg 78%
    01:00 +15°C° 0 mm 2 mps 765 mmHg 82%
    02:00 +14°C° 0 mm 2 mps 764 mmHg 85%
    03:00 +14°C° 0 mm 2 mps 764 mmHg 87%
    04:00 +14°C° 0 mm 2 mps 764 mmHg 89%
    05:00 +14°C° 0 mm 2 mps 764 mmHg 90%
    06:00 +13°C° 0 mm 3 mps 764 mmHg 91%
    07:00 +13°C° 0 mm 3 mps 764 mmHg 92%
    08:00 +13°C° 0 mm 3 mps 764 mmHg 93%
    09:00 +15°C° 0 mm 4 mps 764 mmHg 83%
    10:00 +17°C° 0 mm 4 mps 764 mmHg 73%
    11:00 +19°C° 0 mm 5 mps 764 mmHg 64%
    12:00 +19°C° 0 mm 5 mps 763 mmHg 62%
    13:00 +19°C° 0 mm 5 mps 763 mmHg 60%
    14:00 +20°C° 0 mm 5 mps 763 mmHg 57%
    15:00 +19°C° 0 mm 4 mps 762 mmHg 64%
    16:00 +18°C° 0 mm 4 mps 762 mmHg 70%
    17:00 +17°C° 0 mm 4 mps 762 mmHg 76%
    18:00 +16°C° 0.3 mm 3 mps 762 mmHg 80%
    19:00 +16°C° 0.3 mm 3 mps 762 mmHg 83%
    20:00 +16°C° 0.3 mm 2 mps 763 mmHg 86%
    21:00 +14°C° 1.4 mm 3 mps 763 mmHg 87%
    22:00 +14°C° 1.4 mm 3 mps 763 mmHg 88%
    23:00 +14°C° 1.4 mm 4 mps 763 mmHg 89%

    21 November, Thursday

    Time Temperature Precipitation Wind Pressure Humidity
    00:00 +14°C° 0.3 mm 4 mps 763 mmHg 89%
    01:00 +14°C° 0.3 mm 3 mps 763 mmHg 89%
    02:00 +13°C° 0.3 mm 3 mps 763 mmHg 90%
    03:00 +13°C° 0 mm 3 mps 762 mmHg 90%
    04:00 +14°C° 0 mm 2 mps 762 mmHg 90%
    05:00 +14°C° 0 mm 2 mps 762 mmHg 90%
    06:00 +14°C° 0.1 mm 2 mps 762 mmHg 90%
    07:00 +14°C° 0.1 mm 2 mps 763 mmHg 90%
    08:00 +14°C° 0.1 mm 1 mps 763 mmHg 89%
    09:00 +15°C° 0.2 mm 2 mps 763 mmHg 83%
    10:00 +16°C° 0.2 mm 2 mps 763 mmHg 77%
    11:00 +17°C° 0.2 mm 2 mps 763 mmHg 71%
    12:00 +17°C° 0.1 mm 3 mps 763 mmHg 71%
    13:00 +18°C° 0.1 mm 3 mps 763 mmHg 70%
    14:00 +18°C° 0.1 mm 4 mps 762 mmHg 69%
    15:00 +17°C° 0.1 mm 4 mps 762 mmHg 74%
    16:00 +15°C° 0.1 mm 4 mps 763 mmHg 80%
    17:00 +14°C° 0.1 mm 4 mps 763 mmHg 85%
    18:00 +14°C° 0.1 mm 3 mps 763 mmHg 87%
    19:00 +13°C° 0.1 mm 3 mps 763 mmHg 89%
    20:00 +13°C° 0.1 mm 3 mps 764 mmHg 90%
    21:00 +13°C° 0.1 mm 3 mps 764 mmHg 91%
    22:00 +13°C° 0.1 mm 3 mps 764 mmHg 91%
    23:00 +12°C° 0.1 mm 3 mps 765 mmHg 92%

    22 November, Friday

    Time Temperature Precipitation Wind Pressure Humidity
    00:00 +13°C° 0.4 mm 3 mps 765 mmHg 91%
    01:00 +13°C° 0.4 mm 4 mps 765 mmHg 90%
    02:00 +13°C° 0.4 mm 5 mps 765 mmHg 89%
    03:00 +13°C° 0.2 mm 5 mps 765 mmHg 87%
    04:00 +13°C° 0.2 mm 5 mps 765 mmHg 86%
    05:00 +13°C° 0.2 mm 6 mps 765 mmHg 85%
    06:00 +11°C° 0.1 mm 6 mps 766 mmHg 82%
    07:00 +11°C° 0.1 mm 6 mps 766 mmHg 80%
    08:00 +11°C° 0.1 mm 6 mps 766 mmHg 77%
    09:00 +11°C° 0 mm 6 mps 767 mmHg 75%
    10:00 +13°C° 0 mm 6 mps 767 mmHg 73%
    11:00 +13°C° 0 mm 6 mps 767 mmHg 71%
    12:00 +13°C° 0 mm 5 mps 767 mmHg 72%
    13:00 +13°C° 0 mm 5 mps 767 mmHg 73%
    14:00 +13°C° 0 mm 5 mps 767 mmHg 74%
    15:00 +12°C° 0 mm 5 mps 767 mmHg 76%
    16:00 +11°C° 0 mm 6 mps 767 mmHg 79%
    17:00 +10°C° 0 mm 6 mps 768 mmHg 82%
    18:00 +10°C° 0 mm 6 mps 768 mmHg 80%
    19:00 +9°C° 0 mm 6 mps 768 mmHg 79%
    20:00 +9°C° 0 mm 5 mps 768 mmHg 78%
    21:00 +9°C° 0 mm 5 mps 769 mmHg 78%
    22:00 +10°C° 0 mm 4 mps 769 mmHg 78%
    23:00 +10°C° 0 mm 4 mps 769 mmHg 79%
    Show more